Location: Brno
(49.2000°N, 16.6330°E)
Time: 21:00:45
(UTC+02:00)

Cosmos 2227 - Visible Passes

Search period start: 01 July 2016 00:00
Search period end: 11 July 2016 00:00
Orbit: 833 x 863 km, 71.0° (Epoch: 01 July)

Date Brightness Start Highest point End Pass type
(mag) Time Alt. Az. Time Alt. Az. Time Alt. Az.
01 Jul 5.6 01:43:58 10° WSW 01:49:00 32° NW 01:54:07 10° NNE visible
01 Jul 6.9 03:33:44 10° NW 03:35:11 11° NNW 03:36:37 10° N visible
01 Jul 4.4 23:48:16 25° S 23:51:25 53° ESE 23:56:57 10° NE visible
02 Jul 5.7 01:30:50 10° WSW 01:35:54 33° NW 01:41:01 10° NNE visible
02 Jul 6.9 03:20:32 10° NW 03:22:03 11° NNW 03:23:33 10° N visible
02 Jul 4.4 23:34:53 22° S 23:38:19 53° ESE 23:43:50 10° NE visible
03 Jul 5.7 01:17:41 10° WSW 01:22:46 33° NW 01:27:55 10° NNE visible
03 Jul 6.9 03:07:21 10° NW 03:08:55 11° NNW 03:10:29 10° N visible
03 Jul 4.4 23:21:26 20° S 23:25:12 52° ESE 23:30:43 10° NE visible
04 Jul 5.7 01:04:33 10° WSW 01:09:39 33° NW 01:14:49 10° NNE visible
04 Jul 6.9 02:54:08 10° NW 02:55:47 11° NNW 02:57:25 10° N visible
04 Jul 4.4 23:07:52 17° S 23:12:06 51° ESE 23:17:37 10° NE visible
05 Jul 5.7 00:51:25 10° WSW 00:56:32 34° NW 01:01:43 10° NNE visible
05 Jul 7.0 02:40:57 10° NW 02:42:38 11° NNW 02:44:21 10° N visible
05 Jul 4.4 22:54:10 13° S 22:58:59 50° ESE 23:04:30 10° NE visible
06 Jul 5.7 00:38:17 10° WSW 00:43:25 34° NW 00:48:37 10° NNE visible
06 Jul 7.0 02:27:45 10° NW 02:29:30 11° NNW 02:31:17 10° N visible
06 Jul 4.5 22:40:29 10° S 22:45:54 50° ESE 22:51:23 10° NE visible
07 Jul 5.7 00:25:09 10° WSW 00:30:18 35° NW 00:35:31 10° NNE visible
07 Jul 7.0 02:14:34 10° NW 02:16:23 11° NNW 02:18:13 10° N visible
07 Jul 4.5 22:27:23 10° S 22:32:47 49° ESE 22:38:16 10° NE visible
08 Jul 5.7 00:12:01 10° WSW 00:17:11 35° NW 00:22:25 10° NNE visible
08 Jul 7.1 02:01:22 10° NW 02:03:15 11° NNW 02:05:09 10° N visible
08 Jul 4.5 22:14:17 10° S 22:19:41 48° ESE 22:25:09 10° NE visible
08 Jul 5.7 23:58:53 10° WSW 00:04:03 35° NW 00:09:18 10° NNE visible
09 Jul 7.1 01:48:11 10° NW 01:50:07 12° NNW 01:52:04 10° N visible
09 Jul 4.5 22:01:12 10° S 22:06:35 47° ESE 22:12:02 10° NE visible
09 Jul 5.7 23:45:45 10° WSW 23:50:57 36° NW 23:56:13 10° NNE visible
10 Jul 7.1 01:35:00 10° NW 01:37:00 12° NNW 01:39:00 10° N visible
10 Jul 4.5 21:48:07 10° S 21:53:29 47° ESE 21:58:56 10° NE visible
10 Jul 5.7 23:32:37 10° WSW 23:37:50 36° NW 23:43:07 10° NNE visible
